DRAGON CRS-17

Last updated on Tue Jun 04 2019 00:02:03 GMT+0000 (Coordinated Universal Time)

1 44222U 19025A 19154.78930375 .00000011 00000-0 76881-5 0 9990 2 44222 51.6386 67.8039 0015208 3.7579 111.5799 15.53549418 4748
UTC large
Height (km)
Speed (km/s)
/
Latitude / Longitude
Inclination (degrees)
Orbital Period (minutes)
Azimuth
Elevation
Range (km)
Doppler Factor

Next 0 passes for location: London (51.5072 / 0.1276)

Sorry there are no passes over London.